This demonstration page uses our WeatherBlox Daily Observations layout. Learn more.

Left ArrowRight Arrow

34.02893, -84.19858

Hourly Observations for February 8, 2022

Temp ( °F °C ) Dew Point ( °F °C ) Humidity (%) Winds ( mph kmh ) Pressure ( in mb ) Visibility ( mi km ) Precip ( " mm )
12:53 am 00:53 Clear 40 4.4 25 -3.9 55 55 NW 7 11 30.15 1021 10 16 0.00 0.00
1:53 am 01:53 Clear 39 3.9 25 -3.9 57 57 NW 5 7 30.15 1021 10 16 0.00 0.00
2:53 am 02:53 Clear 39 3.9 25 -3.9 57 57 NW 12 19 30.15 1021 10 16 0.00 0.00
3:53 am 03:53 Clear 38 3.3 26 -3.3 62 62 NW 9 15 30.14 1021 10 16 0.00 0.00
4:53 am 04:53 Clear 37 2.8 26 -3.3 65 65 NW 8 13 30.15 1021 10 16 0.00 0.00
5:53 am 05:53 Clear 36 2.2 26 -3.3 67 67 WNW 3 6 30.18 1022 10 16 0.00 0.00
6:53 am 06:53 Clear 33 0.6 26 -3.3 75 75 W 5 7 30.19 1022 10 16 0.00 0.00
7:53 am 07:53 Sunny 33 0.6 25 -3.9 72 72 NW 3 6 30.20 1023 10 16 0.00 0.00
8:53 am 08:53 Sunny 38 3.3 26 -3.3 62 62 NW 5 7 30.22 1023 10 16 0.00 0.00
9:53 am 09:53 Sunny 44 6.7 25 -3.9 47 47 N 12 19 30.23 1024 10 16 0.00 0.00
10:53 am 10:53 Sunny 47 8.3 25 -3.9 42 42 N 8 13 30.23 1024 10 16 0.00 0.00
11:53 am 11:53 Sunny 50 10 25 -3.9 38 38 N 8 13 30.22 1023 10 16 0.00 0.00
12:53 pm 12:53 Sunny 52 11.1 25 -3.9 35 35 WNW 7 11 30.19 1022 10 16 0.00 0.00
1:53 pm 13:53 Sunny 53 11.7 24 -4.4 32 32 NW 8 13 30.16 1021 10 16 0.00 0.00
2:53 pm 14:53 Sunny 54 12.2 25 -3.9 33 33 N 8 13 30.13 1020 10 16 0.00 0.00
3:53 pm 15:53 Sunny 54 12.2 25 -3.9 33 33 WNW 10 17 30.13 1020 10 16 0.00 0.00
4:53 pm 16:53 Sunny 53 11.7 25 -3.9 34 34 W 10 17 30.14 1021 10 16 0.00 0.00
5:53 pm 17:53 Sunny 51 10.6 24 -4.4 35 35 NW 9 15 30.14 1021 10 16 0.00 0.00
6:53 pm 18:53 Clear 47 8.3 25 -3.9 42 42 WNW 6 9 30.16 1021 10 16 0.00 0.00
7:53 pm 19:53 Clear 42 5.6 24 -4.4 49 49 Calm 30.19 1022 10 16 0.00 0.00
8:53 pm 20:53 Clear 39 3.9 25 -3.9 57 57 Calm 30.19 1022 10 16 0.00 0.00
9:53 pm 21:53 Clear 36 2.2 26 -3.3 67 67 Calm 30.17 1022 10 16 0.00 0.00
10:53 pm 22:53 Clear 35 1.7 26 -3.3 70 70 Calm 30.17 1022 10 16 0.00 0.00
11:53 pm 23:53 Clear 33 0.6 26 -3.3 75 75 Calm 30.15 1021 10 16 0.00 0.00

Powered by AerisWeather